This demonstration page uses our WeatherBlox Daily Observations layout. Learn more.

Left ArrowRight Arrow

39.12711, -84.51439

Hourly Observations for July 24, 2021

Temp ( °F °C ) Dew Point ( °F °C ) Humidity (%) Winds ( mph kmh ) Pressure ( in mb ) Visibility ( mi km ) Precip ( " mm )
12:53 am 00:53 Clear 67 19.4 65 18.3 93 93 N N/A 30.10 1019 10 16 N/A
1:53 am 01:53 Clear 66 18.9 64 17.8 93 93 N N/A 30.09 1019 10 16 N/A
2:53 am 02:53 Clear 65 18.3 64 17.8 97 97 N N/A 30.07 1018 7 11 N/A
3:53 am 03:53 Clear 63 17.2 62 16.7 97 97 N N/A 30.06 1018 7 11 N/A
4:53 am 04:53 Clear 63 17.2 61 16.1 93 93 N N/A 30.06 1018 9 14 N/A
5:53 am 05:53 Clear with Mist and Fog 62 16.7 61 16.1 96 96 N N/A 30.06 1018 3 4 N/A
6:06 am 06:06 Clear 62 16.7 61 16.1 96 96 N N/A 30.06 1018 7 11 N/A
6:31 am 06:31 Clear with Mist and Fog 62 16.7 61 16.1 96 96 N N/A 30.07 1018 2 2 N/A
6:39 am 06:39 Sunny with Mist and Fog 62 16.7 61 16.1 96 96 N N/A 30.07 1018 6 10 N/A
6:53 am 06:53 Partly Cloudy with Mist and Fog 61 16.1 60 15.6 97 97 N N/A 30.07 1018 6 10 N/A
7:14 am 07:14 Mostly Cloudy with Mist and Fog 63 17.2 62 16.7 97 97 N N/A 30.07 1018 3 5 N/A
7:43 am 07:43 Partly Cloudy 65 18.3 63 17.2 93 93 N N/A 30.07 1018 7 11 N/A
7:53 am 07:53 Sunny 65 18.3 64 17.8 97 97 N N/A 30.06 1018 8 13 N/A
8:53 am 08:53 Sunny 70 21.1 65 18.3 84 84 N N/A 30.07 1018 10 16 N/A
9:53 am 09:53 Sunny 75 23.9 66 18.9 74 74 S 3 6 30.07 1018 10 16 N/A
10:53 am 10:53 Sunny 79 26.1 67 19.4 67 67 S 8 13 30.06 1018 10 16 N/A
12:53 pm 12:53 Sunny 84 28.9 66 18.9 55 55 W 9 15 30.05 1018 10 16 N/A
1:53 pm 13:53 Sunny 85 29.4 68 20 57 57 SW 7 11 30.03 1017 10 16 N/A
2:53 pm 14:53 Mostly Sunny 85 29.4 67 19.4 55 55 SSE 9 15 30.01 1016 10 16 N/A
3:53 pm 15:53 Partly Cloudy 85 29.4 67 19.4 55 55 S 8 13 29.99 1016 10 16 N/A
4:53 pm 16:53 Mostly Sunny 86 30 69 20.6 57 57 SSW 14 22 29.96 1015 10 16 N/A
5:53 pm 17:53 Sunny 85 29.4 69 20.6 59 59 SSW 12 19 29.95 1014 10 16 N/A
6:53 pm 18:53 Sunny 84 28.9 68 20 59 59 S 10 17 29.94 1014 10 16 N/A
7:53 pm 19:53 Mostly Sunny 80 26.7 68 20 67 67 SSW 8 13 29.94 1014 10 16 N/A
8:53 pm 20:53 Sunny 77 25 69 20.6 77 77 S 6 9 29.93 1014 10 16 N/A
9:53 pm 21:53 Clear 76 24.4 68 20 77 77 S 9 15 29.91 1013 10 16 N/A
10:53 pm 22:53 Clear 74 23.3 68 20 82 82 SSW 5 7 29.93 1014 10 16 N/A
11:53 pm 23:53 Clear 73 22.8 67 19.4 81 81 SSW 5 7 29.94 1014 10 16 N/A

Powered by AerisWeather